This is the latest recevied weather packets stored in our database for station/object IZ2MHJ-3. If no packets are shown the sender has not sent any weather packets the latest 10 day(s).
| Time | Temp. | Humidity | Pressure | Rain* | Wind** | Luminosity | Snow |
|---|---|---|---|---|---|---|---|
| 1787616636 | 24.44° C | 61% | 1012.7 hPa | - | - | - | - |
| 1787615435 | 24.44° C | 58% | 1013.3 hPa | - | - | - | - |
| 1787614235 | 25° C | 57% | 1013.5 hPa | - | - | - | - |
| 1787613035 | 25° C | 57% | 1013.6 hPa | - | - | - | - |
| 1787611834 | 24.44° C | 59% | 1013.6 hPa | - | - | - | - |
| 1787610634 | 25° C | 61% | 1013.7 hPa | - | - | - | - |
| 1787609434 | 25.56° C | 56% | 1013.3 hPa | - | - | - | - |
| 1787608233 | 25.56° C | 56% | 1013.7 hPa | - | - | - | - |
| 1787607033 | 25.56° C | 56% | 1013.9 hPa | - | - | - | - |
| 1787605833 | 26.11° C | 54% | 1014.3 hPa | - | - | - | - |
| 1787604633 | 26.11° C | 55% | 1014.4 hPa | - | - | - | - |
| 1787603432 | 26.11° C | 54% | 1014.7 hPa | - | - | - | - |
| 1787602232 | 26.67° C | 53% | 1014.6 hPa | - | - | - | - |
| 1787601032 | 27.22° C | 51% | 1014.8 hPa | - | - | - | - |
| 1787599831 | 27.78° C | 50% | 1015 hPa | - | - | - | - |
| 1787598631 | 27.78° C | 50% | 1015.1 hPa | - | - | - | - |
| 1787597431 | 27.78° C | 49% | 1015.4 hPa | - | - | - | - |
| 1787596230 | 27.78° C | 50% | 1015.1 hPa | - | - | - | - |
| 1787595030 | 28.33° C | 51% | 1015 hPa | - | - | - | - |
| 1787593830 | 28.33° C | 50% | 1015 hPa | - | - | - | - |
| 1787592629 | 29.44° C | 47% | 1014.9 hPa | - | - | - | - |
| 1787591429 | 29.44° C | 46% | 1015.2 hPa | - | - | - | - |
| 1787590229 | 30° C | 45% | 1015.4 hPa | - | - | - | - |
| 1787589029 | 31.11° C | 43% | 1015.5 hPa | - | - | - | - |
| 1787587828 | 32.22° C | 43% | 1015.8 hPa | - | - | - | - |
* Rain since midnight (hover to see other rain measurements)
** Current wind speed in m/s (hover to see current wind gust speed)